Cotulla, TX

11:28 AM CDT on March 30, 2017 (GMT -0500)
Cotulla-La Salle County

Weather History for KCOT - November, 2012

Change the Weather History Date:

Monday, November 5, 2012

  Actual Average Record
Temperature  
Mean Temperature 74 °F -  
Max Temperature 89 °F 74 °F 91 °F (2015)
Min Temperature 59 °F 54 °F 34 °F (2010)
Cooling Degree Days 9    
Growing Degree Days 24 (Base 50)    
Moisture  
Dew Point 59 °F    
Average Humidity 67    
Maximum Humidity 97    
Minimum Humidity 35    
Precipitation  
Precipitation 0.00 in - - ()
Sea Level Pressure  
Sea Level Pressure 30.01 in    
Wind  
Wind Speed 2 mph (South)    
Max Wind Speed 9 mph    
Max Gust Speed -    
Visibility 9 miles    
Events      
Averages and records for this station are not official NWS values.
T = Trace of Precipitation, MM = Missing Value Source: NWS Daily Summary

Daily Weather History Graph

Daily Weather History Graph

Search for Another Location

Airport or City:

Trip Planner

Search our weather history database for the weather conditions in past years. The results will help you decide how hot, cold, wet, or windy it might be!

Date:

Astronomy

Nov. 05, 2012 Rise Set
Actual Time 6:51 AM CST 5:48 PM CST
Civil Twilight 6:27 AM CST 6:13 PM CST
Nautical Twilight 5:59 AM CST 6:41 PM CST
Astronomical Twilight 5:31 AM CST 7:08 PM CST
Moon 11:26 PM CST (11/5) 12:11 PM CST (11/5)
Length of Visible Light 11h 45m
Length of Day
10h 56m
Waning Gibbous, 62% of the Moon is Illuminated
Nov 5
Waning Gibbous
Nov 6
Last Quarter
Nov 13
New
Nov 20
First Quarter
Nov 28
Full

Hourly Weather History & Observations

Time (CST) Temp. Heat Index Dew Point Humidity Pressure Visibility Wind Dir Wind Speed Gust Speed Precip Events Conditions
12:53 AM 64.0 °F - 60.1 °F 87% 30.06 in 10.0 mi Calm Calm - N/A   Clear
1:53 AM 63.0 °F - 60.1 °F 90% 30.05 in 7.0 mi Calm Calm - N/A   Clear
2:53 AM 60.8 °F - 59.0 °F 94% 30.06 in 9.0 mi Calm Calm - N/A   Clear
3:53 AM 60.1 °F - 57.9 °F 93% 30.02 in 9.0 mi SE 3.5 mph - N/A   Clear
4:53 AM 61.0 °F - 57.9 °F 90% 30.02 in 5.0 mi Calm Calm - N/A   Clear
5:53 AM 59.0 °F - 57.2 °F 94% 30.05 in 8.0 mi NE 4.6 mph - N/A   Clear
6:53 AM 61.0 °F - 60.1 °F 97% 30.04 in 6.0 mi NNE 3.5 mph - N/A   Clear
7:53 AM 64.0 °F - 62.1 °F 93% 30.05 in 5.0 mi Calm Calm - N/A   Clear
8:53 AM 71.1 °F - 63.0 °F 75% 30.07 in 10.0 mi Calm Calm - N/A   Clear
9:53 AM 77.0 °F - 63.0 °F 62% 30.06 in 10.0 mi Calm Calm - N/A   Clear
10:53 AM 81.0 °F 82.2 °F 63.0 °F 54% 30.06 in 10.0 mi Calm Calm - N/A   Clear
11:53 AM 84.0 °F 84.9 °F 63.0 °F 49% 30.03 in 10.0 mi SW 4.6 mph - N/A   Clear
12:53 PM 87.1 °F 87.5 °F 62.1 °F 43% 29.99 in 10.0 mi SW 6.9 mph - 0.00 in   Clear
1:53 PM 88.0 °F 87.6 °F 60.1 °F 39% 29.96 in 10.0 mi Variable 3.5 mph - N/A   Clear
2:53 PM 89.1 °F 88.2 °F 59.0 °F 36% 29.93 in 10.0 mi Variable 3.5 mph - N/A   Clear
3:53 PM 88.0 °F 86.9 °F 57.9 °F 36% 29.93 in 10.0 mi West 4.6 mph - N/A   Clear
4:53 PM 87.1 °F 85.7 °F 55.9 °F 35% 29.93 in 10.0 mi SSW 4.6 mph - N/A   Clear
5:53 PM 81.0 °F 81.0 °F 57.0 °F 44% 29.94 in 10.0 mi SSE 3.5 mph - N/A   Partly Cloudy
7:53 PM 73.0 °F - 57.9 °F 59% 29.97 in 10.0 mi SSE 3.5 mph - N/A   Partly Cloudy
8:53 PM 71.1 °F - 57.9 °F 63% 29.98 in 10.0 mi Calm Calm - N/A   Clear
9:53 PM 68.0 °F - 57.9 °F 70% 29.98 in 10.0 mi South 3.5 mph - N/A   Clear
10:53 PM 66.9 °F - 57.0 °F 70% 29.99 in 10.0 mi NW 3.5 mph - N/A   Clear
11:53 PM 70.0 °F - 57.9 °F 65% 30.02 in 10.0 mi NE 9.2 mph - N/A   Clear